Simultaneous Nadir Overpasses (SNOs) Predictions

Prediction of SNOs between GOES-17 and TERRA Satellite Orbit:

Table of predicted SNOs for the next 14.0 days since TLE Epoch: 4/20/2024
Index Date Time (GOES-17) GOES-17 Lat,Lon TERRA Lat,Lon Distance(km) Time Diff (sec)
1 04/21/2024 16:46:17 0.00,-104.70 -0.23,-103.68 116.16 80
2 04/22/2024 05:06:24 -0.00,-104.70 -0.83,-108.57 440.10 80
3 04/24/2024 04:46:34 -0.01,-104.70 0.05,-104.43 30.98 80
4 04/26/2024 16:49:21 0.02,-104.71 0.09,-105.14 49.29 80
5 04/28/2024 16:34:49 -0.00,-104.70 -0.80,-101.00 421.43 80
6 04/29/2024 04:54:56 0.01,-104.70 -0.22,-105.89 134.78 80
7 05/01/2024 04:35:02 0.02,-104.69 0.62,-101.73 336.36 80
8 05/01/2024 16:54:59 -0.02,-104.69 0.41,-106.58 215.03 80
9 05/03/2024 16:40:25 -0.02,-104.69 -0.51,-102.43 257.31 80
